TimeCDT,TemperatureF,Dew PointF,Humidity,Sea Level PressureIn,VisibilityMPH,Wind Direction,Wind SpeedMPH,Gust SpeedMPH,PrecipitationIn,Events,Conditions,WindDirDegrees,DateUTC
12:51 AM,68.0,61.0,78,29.93,10.0,SSE,10.4,-,N/A,,Clear,150,2013-04-07 05:51:00
1:51 AM,66.9,60.1,79,29.92,10.0,SSE,8.1,-,N/A,,Partly Cloudy,160,2013-04-07 06:51:00
2:51 AM,66.0,60.1,81,29.89,10.0,SSE,9.2,-,N/A,,Partly Cloudy,160,2013-04-07 07:51:00
3:51 AM,66.0,60.1,81,29.87,10.0,SSE,9.2,-,N/A,,Clear,150,2013-04-07 08:51:00
4:51 AM,66.0,61.0,84,29.86,10.0,SSE,9.2,-,N/A,,Clear,150,2013-04-07 09:51:00
5:51 AM,66.0,60.1,81,29.86,10.0,SE,9.2,-,N/A,,Clear,140,2013-04-07 10:51:00
6:51 AM,64.9,60.1,84,29.87,10.0,SE,8.1,-,N/A,,Clear,140,2013-04-07 11:51:00
7:51 AM,66.9,62.1,84,29.89,10.0,SE,8.1,-,N/A,,Clear,130,2013-04-07 12:51:00
8:51 AM,71.1,63.0,75,29.91,10.0,SSE,13.8,-,N/A,,Scattered Clouds,150,2013-04-07 13:51:00
9:38 AM,75.2,62.6,65,29.92,10.0,South,24.2,28.8,N/A,,Mostly Cloudy,170,2013-04-07 14:38:00
9:51 AM,75.9,62.1,62,29.92,10.0,South,24.2,-,N/A,,Mostly Cloudy,170,2013-04-07 14:51:00
10:51 AM,79.0,62.1,56,29.92,10.0,SSE,23.0,29.9,N/A,,Mostly Cloudy,160,2013-04-07 15:51:00
11:00 AM,78.8,60.8,54,29.92,10.0,South,21.9,31.1,N/A,,Mostly Cloudy,170,2013-04-07 16:00:00
11:51 AM,82.0,62.1,51,29.92,10.0,SSE,24.2,33.4,N/A,,Mostly Cloudy,150,2013-04-07 16:51:00
12:51 PM,80.1,62.1,54,29.90,10.0,SE,25.3,-,N/A,,Overcast,140,2013-04-07 17:51:00
1:51 PM,82.0,62.1,51,29.87,10.0,SE,23.0,29.9,N/A,,Overcast,140,2013-04-07 18:51:00
2:51 PM,84.0,62.1,47,29.84,10.0,SE,26.5,32.2,N/A,,Mostly Cloudy,140,2013-04-07 19:51:00
3:51 PM,82.9,62.1,49,29.82,10.0,SE,25.3,34.5,N/A,,Mostly Cloudy,130,2013-04-07 20:51:00
4:51 PM,82.0,62.1,51,29.81,10.0,SE,26.5,34.5,N/A,,Scattered Clouds,140,2013-04-07 21:51:00
5:51 PM,79.0,62.1,56,29.80,10.0,SE,28.8,-,N/A,,Partly Cloudy,130,2013-04-07 22:51:00
6:51 PM,77.0,62.1,60,29.80,10.0,SE,25.3,32.2,N/A,,Partly Cloudy,130,2013-04-07 23:51:00
7:51 PM,73.9,63.0,68,29.81,10.0,SE,24.2,32.2,N/A,,Partly Cloudy,140,2013-04-08 00:51:00
8:51 PM,73.0,63.0,71,29.83,10.0,SSE,21.9,29.9,N/A,,Clear,150,2013-04-08 01:51:00
9:51 PM,72.0,64.0,76,29.85,10.0,SSE,15.0,-,N/A,,Partly Cloudy,150,2013-04-08 02:51:00
10:51 PM,72.0,64.0,76,29.84,10.0,SSE,18.4,-,N/A,,Clear,150,2013-04-08 03:51:00
11:51 PM,72.0,64.9,78,29.83,10.0,SSE,19.6,-,N/A,,Partly Cloudy,150,2013-04-08 04:51:00